Rome Ciampino, Italy

6:07 PM CEST on July 24, 2017 (GMT +0200)
Ciampino

Weather History for LIRA - December, 2013

Change the Weather History Date:

Wednesday, December 18, 2013

  Actual Average Record
Temperature  
Mean Temperature 44 °F -  
Max Temperature 55 °F 54 °F 60 °F (1997)
Min Temperature 32 °F 38 °F 30 °F (2001)
Degree Days  
Heating Degree Days 22    
Moisture  
Dew Point 38 °F    
Average Humidity 86    
Maximum Humidity 100    
Minimum Humidity 53    
Precipitation  
Precipitation 0.00 in 0.14 in - ()
Sea Level Pressure  
Sea Level Pressure 30.32 in    
Wind  
Wind Speed 2 mph ()    
Max Wind Speed 6 mph    
Max Gust Speed -    
Visibility 5.7 miles    
Events      
Averages and records for this station are not official NWS values.
T = Trace of Precipitation, MM = Missing Value Source: Averaged Metar Reports

Daily Weather History Graph

Daily Weather History Graph

Search for Another Location

Airport or City:

Trip Planner

Search our weather history database for the weather conditions in past years. The results will help you decide how hot, cold, wet, or windy it might be!

Date:

Astronomy

Dec. 18, 2013 Rise Set
Actual Time 7:32 AM CET 4:40 PM CET
Civil Twilight 7:00 AM CET 5:12 PM CET
Nautical Twilight 6:25 AM CET 5:47 PM CET
Astronomical Twilight 5:51 AM CET 6:21 PM CET
Moon 5:58 PM CET (12/18) 7:58 AM CET (12/18)
Length of Visible Light 10h 11m
Length of Day
9h 08m
Full, 99% of the Moon is Illuminated
Dec 18
Full
Dec 25
Last Quarter
Jan 1
New
Jan 8
First Quarter
Jan 16
Full

Hourly Weather History & Observations

Time (CET) Temp. Windchill Dew Point Humidity Pressure Visibility Wind Dir Wind Speed Gust Speed Precip Events Conditions
12:15 AM 39.2 °F - 35.6 °F 87% 30.39 in 5.0 mi ENE 2.3 mph - N/A   Unknown
12:45 AM 39.2 °F - 35.6 °F 87% 30.39 in 5.0 mi Calm Calm - N/A   Unknown
1:00 AM 39 °F - 35 °F 79% 30.43 in 5 mi Calm Calm - -   Mist
1:15 AM 37.4 °F 34.9 °F 37.4 °F 100% 30.39 in 5.0 mi NNE 3.5 mph - N/A   Unknown
1:45 AM 37.4 °F 34.9 °F 35.6 °F 93% 30.39 in 5.0 mi NNE 3.5 mph - N/A   Unknown
2:15 AM 37.4 °F - 35.6 °F 93% 30.36 in 3.7 mi NNE 2.3 mph - N/A   Unknown
2:45 AM 35.6 °F - 35.6 °F 100% 30.36 in 3.7 mi NNE 2.3 mph - N/A   Unknown
3:15 AM 35.6 °F 31.7 °F 35.6 °F 100% 30.36 in 5.0 mi NE 4.6 mph - N/A   Unknown
3:45 AM 35.6 °F 31.7 °F 35.6 °F 100% 30.36 in 5.0 mi NE 4.6 mph - N/A   Unknown
4:00 AM 36 °F - 36 °F 98% 30.40 in 5 mi NE 4.6 mph - -   Mist
4:15 AM 35.6 °F 31.7 °F 35.6 °F 100% 30.36 in 5.0 mi NE 4.6 mph - N/A   Unknown
4:45 AM 33.8 °F 30.8 °F 33.8 °F 100% 30.36 in - NNE 3.5 mph - N/A   Clear
5:15 AM 33.8 °F 30.8 °F 33.8 °F 100% 30.36 in - NE 3.5 mph - N/A   Clear
5:45 AM 33.8 °F 30.8 °F 33.8 °F 100% 30.33 in - NNE 3.5 mph - N/A   Clear
6:15 AM 33.8 °F 29.6 °F 33.8 °F 100% 30.33 in - NE 4.6 mph - N/A   Clear
6:45 AM 32.0 °F 28.7 °F 32.0 °F 100% 30.33 in - ENE 3.5 mph - N/A   Clear
7:00 AM 33 °F - 33 °F 98% 30.37 in 6 mi ENE 3.5 mph - -  
7:15 AM 32.0 °F - 32.0 °F 100% 30.33 in - Calm Calm - N/A   Clear
7:45 AM 32.0 °F - 32.0 °F 100% 30.33 in 5.0 mi NNE 2.3 mph - N/A   Unknown
8:15 AM 33.8 °F 30.8 °F 33.8 °F 100% 30.33 in 5.0 mi ENE 3.5 mph - N/A   Unknown
8:45 AM 37.4 °F - 35.6 °F 93% 30.36 in 5.0 mi NNE 2.3 mph - N/A   Partly Cloudy
9:15 AM 37.4 °F 34.9 °F 33.8 °F 87% 30.33 in 5.0 mi NNE 3.5 mph - N/A   Partly Cloudy
9:45 AM 39.2 °F - 35.6 °F 87% 30.33 in 6.2 mi NNE 1.2 mph - N/A   Partly Cloudy
10:00 AM 39 °F - 35 °F 80% 30.38 in 6 mi NNE 1.2 mph - -   Scattered Clouds
10:15 AM 41.0 °F - 35.6 °F 81% 30.33 in 6.2 mi NNE 2.3 mph - N/A   Partly Cloudy
10:45 AM 42.8 °F 40.1 °F 35.6 °F 76% 30.33 in 6.2 mi North 4.6 mph - N/A   Partly Cloudy
11:15 AM 44.6 °F 43.1 °F 35.6 °F 71% 30.33 in 6.2 mi NNE 3.5 mph - N/A   Partly Cloudy
11:45 AM 46.4 °F - 37.4 °F 71% 30.33 in 6.2 mi NNE 2.3 mph - N/A   Partly Cloudy
12:15 PM 50.0 °F - 39.2 °F 66% 30.33 in 6.2 mi North 2.3 mph - N/A   Partly Cloudy
12:45 PM 50.0 °F - 39.2 °F 66% 30.30 in 6.2 mi North 2.3 mph - N/A   Partly Cloudy
1:00 PM 51 °F - 39 °F 53% 30.33 in 9 mi North 2.3 mph - -   Scattered Clouds
1:15 PM 53.6 °F - 39.2 °F 58% 30.30 in 6.2 mi NNE 1.2 mph - N/A   Partly Cloudy
1:45 PM 53.6 °F - 42.8 °F 67% 30.27 in 6.2 mi Calm Calm - N/A   Partly Cloudy
2:15 PM 53.6 °F - 42.8 °F 67% 30.30 in 6.2 mi NNW 1.2 mph - N/A   Partly Cloudy
2:45 PM 55.4 °F - 44.6 °F 67% 30.27 in 6.2 mi WSW 2.3 mph - N/A   Partly Cloudy
3:15 PM 55.4 °F - 44.6 °F 67% 30.27 in 6.2 mi North 1.2 mph - N/A   Partly Cloudy
3:45 PM 53.6 °F - 44.6 °F 72% 30.27 in 6.2 mi Calm Calm - N/A   Partly Cloudy
4:00 PM 54 °F - 44 °F 60% 30.30 in 9 mi Calm Calm - -   Scattered Clouds
4:15 PM 51.8 °F - 42.8 °F 71% 30.27 in - Calm Calm - N/A   Clear
4:45 PM 50.0 °F - 44.6 °F 82% 30.27 in - NE 5.8 mph - N/A   Clear
5:15 PM 46.4 °F - 42.8 °F 87% 30.27 in - East 1.2 mph - N/A   Clear
5:45 PM 44.6 °F 42.2 °F 42.8 °F 93% 30.27 in - East 4.6 mph - N/A   Clear
6:15 PM 44.6 °F - 42.8 °F 93% 30.27 in - SE 1.2 mph - N/A   Clear
6:45 PM 44.6 °F 42.2 °F 42.8 °F 93% 30.27 in 6.2 mi ESE 4.6 mph - N/A   Partly Cloudy
7:00 PM 45 °F - 42 °F 86% 30.29 in 6 mi ESE 4.6 mph - -   Scattered Clouds
7:15 PM 41.0 °F - 39.2 °F 93% 30.27 in 6.2 mi SE 1.2 mph - N/A   Partly Cloudy
7:45 PM 42.8 °F - 41.0 °F 93% 30.27 in 6.2 mi Calm Calm - N/A   Partly Cloudy
8:15 PM 42.8 °F - 39.2 °F 87% 30.27 in 6.2 mi ESE 1.2 mph - N/A   Partly Cloudy
8:45 PM 41.0 °F 39.0 °F 39.2 °F 93% 30.27 in 6.2 mi ESE 3.5 mph - N/A   Partly Cloudy
9:15 PM 39.2 °F 37.0 °F 37.4 °F 93% 30.27 in 6.2 mi ESE 3.5 mph - N/A   Partly Cloudy
9:45 PM 41.0 °F - 35.6 °F 81% 30.27 in 5.0 mi East 1.2 mph - N/A   Partly Cloudy
10:00 PM 41 °F - 36 °F 76% 30.30 in 5 mi East 1.2 mph - -   Mist
10:15 PM 39.2 °F - 37.4 °F 93% 30.27 in 5.0 mi Calm Calm - N/A   Scattered Clouds
10:45 PM 39.2 °F - 37.4 °F 93% 30.27 in 5.0 mi North 1.2 mph - N/A   Scattered Clouds
11:15 PM 39.2 °F - 37.4 °F 93% 30.27 in 5.0 mi North 2.3 mph - N/A   Scattered Clouds
11:45 PM 37.4 °F - 37.4 °F 100% 30.27 in 4.3 mi NE 2.3 mph - N/A   Scattered Clouds